Location: Praha
(50.0830°N, 14.4670°E)
Time: 22:07:56
(UTC+02:00)

ISS - Pass Details

Date: 15 September 2019
Orbit: 411 x 421 km, 51.6° (Epoch: 19 September)

Event Time Altitude Azimuth Distance (km) Brightness Sun altitude
Exits shadow 05:32:28 12° 215° (SW) 1,362 -1.6 -11.0°
Drops below altitude 10° 05:33:29 10° 197° (SSW) 1,485 -1.3 -10.8°
Sets 05:36:32 0° 167° (SSE) 2,345 0.0 -10.3°
